Location: Newark
(44.6303°N, 123.0961°W)
Time: 06:27:21
(UTC+00:00)

Envisat - Pass Details

Date: 26 January 2020
Orbit: 764 x 766 km, 98.1° (Epoch: 20 February)

Event Time Altitude Azimuth Distance (km) Brightness Sun altitude
Rises 01:48:24 0° 161° (SSE) 3,219 6.2 -7.0°
Reaches altitude 10° 01:50:42 10° 160° (SSE) 2,297 5.5 -7.3°
Maximum altitude 01:55:46 78° 75° (ENE) 788 3.0 -8.2°
Drops below altitude 10° 02:00:51 10° 349° (N) 2,313 5.4 -9.0°
Sets 02:03:10 0° 349° (NNW) 3,244 6.2 -9.4°
